Tekamah, NE

5:03 AM CDT on October 17, 2017 (GMT -0500)
Tekamah

Weather History for KTQE - December, 2011

Change the Weather History Date:

Monday, December 5, 2011

  Actual Average Record
Temperature  
Mean Temperature 10 °F -  
Max Temperature 21 °F 39 °F 64 °F (2001)
Min Temperature 0 °F 20 °F -8 °F (2005)
Degree Days  
Heating Degree Days 54    
Moisture  
Dew Point 9 °F    
Average Humidity 77    
Maximum Humidity 86    
Minimum Humidity 68    
Precipitation  
Precipitation 0.00 in - - ()
Sea Level Pressure  
Sea Level Pressure 30.51 in    
Wind  
Wind Speed 7 mph (North)    
Max Wind Speed 18 mph    
Max Gust Speed -    
Visibility 5 miles    
Events Snow    
Averages and records for this station are not official NWS values.
T = Trace of Precipitation, MM = Missing Value Source: NWS Daily Summary

Daily Weather History Graph

Daily Weather History Graph

Search for Another Location

Airport or City:

Trip Planner

Search our weather history database for the weather conditions in past years. The results will help you decide how hot, cold, wet, or windy it might be!

Date:

Astronomy

Dec. 05, 2011 Rise Set
Actual Time 7:36 AM CST 4:54 PM CST
Civil Twilight 7:05 AM CST 5:25 PM CST
Nautical Twilight 6:30 AM CST 6:00 PM CST
Astronomical Twilight 5:56 AM CST 6:33 PM CST
Moon 1:54 PM CST (12/5) 2:56 AM CST (12/5)
Length of Visible Light 10h 20m
Length of Day
9h 17m
Waxing Gibbous, 80% of the Moon is Illuminated
Dec 5
Waxing Gibbous
Dec 10
Full
Dec 17
Last Quarter
Dec 24
New
Jan 1
First Quarter

Hourly Weather History & Observations

Time (CST) Temp. Windchill Dew Point Humidity Pressure Visibility Wind Dir Wind Speed Gust Speed Precip Events Conditions
12:31 AM 3.2 °F -4.2 °F -0.4 °F 85% 30.39 in 4.0 mi NW 3.5 mph - N/A   Partly Cloudy
12:44 AM -0.4 °F - -5.8 °F 78% 30.39 in 2.5 mi Calm Calm - N/A   Haze
12:54 AM -0.9 °F - -6.0 °F 79% 30.44 in 3.0 mi Calm Calm - N/A   Haze
1:10 AM -0.4 °F - -4.0 °F 85% 30.39 in 4.0 mi Calm Calm - N/A   Mostly Cloudy
1:54 AM 3.9 °F - -0.9 °F 80% 30.44 in 5.0 mi Calm Calm - N/A   Haze
2:54 AM 8.1 °F 1.4 °F 3.0 °F 80% 30.45 in 5.0 mi NNW 3.5 mph - N/A   Haze
3:54 AM 8.1 °F -0.5 °F 3.0 °F 80% 30.45 in 7.0 mi ENE 4.6 mph - N/A   Overcast
5:54 AM 12.0 °F 5.9 °F 8.1 °F 84% 30.46 in 5.0 mi ENE 3.5 mph - N/A   Overcast
6:54 AM 15.1 °F 6.4 °F 10.9 °F 84% 30.50 in 6.0 mi North 5.8 mph - N/A   Overcast
7:54 AM 16.0 °F - 12.0 °F 84% 30.53 in 5.0 mi Calm Calm - N/A   Overcast
8:54 AM 17.1 °F - 12.9 °F 84% 30.55 in 4.0 mi Calm Calm - N/A   Overcast
9:29 AM 17.6 °F 7.3 °F 14.0 °F 86% 30.49 in 3.0 mi North 8.1 mph - 0.00 in Snow Light Snow
9:37 AM 19.4 °F 6.6 °F 14.0 °F 80% 30.50 in 3.0 mi North 12.7 mph - 0.00 in Snow Light Snow
9:44 AM 19.4 °F 4.1 °F 15.8 °F 86% 30.50 in 2.0 mi North 18.4 mph - 0.00 in   Overcast
10:08 AM 19.4 °F 4.5 °F 14.0 °F 80% 30.51 in 3.0 mi North 17.3 mph - 0.00 in   Overcast
10:15 AM 19.4 °F 5.0 °F 14.0 °F 80% 30.52 in 2.5 mi North 16.1 mph - 0.00 in   Overcast
10:22 AM 19.4 °F 4.1 °F 14.0 °F 80% 30.52 in 2.5 mi North 18.4 mph - 0.00 in   Overcast
10:33 AM 19.4 °F 5.5 °F 14.0 °F 80% 30.53 in 3.0 mi North 15.0 mph - 0.00 in   Overcast
10:54 AM 19.0 °F 4.5 °F 12.9 °F 77% 30.60 in 4.0 mi North 16.1 mph - 0.00 in   Haze
11:34 AM 19.4 °F 6.0 °F 12.2 °F 74% 30.53 in 6.0 mi North 13.8 mph - N/A   Haze
11:54 AM 21.0 °F 7.1 °F 12.0 °F 68% 30.58 in 7.0 mi North 16.1 mph - N/A   Clear
12:27 PM 21.2 °F 6.8 °F 12.2 °F 68% 30.51 in 5.0 mi North 17.3 mph - N/A   Haze
12:54 PM 21.0 °F 8.1 °F 14.0 °F 74% 30.56 in 3.0 mi North 13.8 mph - N/A   Haze
1:13 PM 21.2 °F 8.9 °F 14.0 °F 74% 30.50 in 2.5 mi North 12.7 mph - N/A   Haze
1:35 PM 21.2 °F 7.3 °F 12.2 °F 68% 30.50 in 4.0 mi North 16.1 mph - N/A   Haze
1:54 PM 21.0 °F 7.6 °F 12.0 °F 68% 30.55 in 5.0 mi North 15.0 mph - N/A   Haze
3:54 PM 19.9 °F 5.2 °F 12.0 °F 71% 30.55 in 4.0 mi North 17.3 mph - N/A   Haze
4:06 PM 19.4 °F 5.0 °F 12.2 °F 74% 30.50 in 2.5 mi North 16.1 mph - 0.00 in Snow Light Snow
4:18 PM 19.4 °F 5.5 °F 12.2 °F 74% 30.49 in 4.0 mi North 15.0 mph - 0.00 in   Haze
4:54 PM 19.0 °F 4.0 °F 10.0 °F 68% 30.54 in 6.0 mi North 17.3 mph - 0.00 in   Haze
5:54 PM 19.0 °F 6.8 °F 10.9 °F 71% 30.54 in 6.0 mi North 11.5 mph - N/A   Haze
6:54 PM 19.0 °F 5.0 °F 10.9 °F 71% 30.54 in 6.0 mi North 15.0 mph - 0.00 in   Haze
7:54 PM 15.1 °F 3.3 °F 7.0 °F 70% 30.56 in 10.0 mi North 9.2 mph - N/A   Scattered Clouds
8:54 PM 10.9 °F -1.8 °F 5.0 °F 77% 30.57 in 10.0 mi NNW 9.2 mph - N/A   Clear
9:54 PM 9.0 °F -2.2 °F 3.0 °F 77% 30.56 in 10.0 mi NNW 6.9 mph - N/A   Clear
10:54 PM 5.0 °F -5.6 °F 1.0 °F 84% 30.56 in 10.0 mi NW 5.8 mph - N/A   Clear
11:54 PM 3.9 °F -8.2 °F -0.0 °F 84% 30.56 in 10.0 mi NW 6.9 mph - N/A   Clear